Погода в Антонинах

Украина / Хмельницкая область     49°48′29″N   26°52′00″E
темп.,
°C
ветер,
м/с
пор.,
м/с
влажн.,
%
обл.,
%
осадки,
мм/ч
давл.,
гПа
погр.,
м
13 апреля, вт
вт1300:00+9ююв34599 0.0 101962
03:00+8ююв336712 0.0 101932
06:00+7юв33705 0.0 101933
09:00+10юв345936 0.0 1018216
12:00+15ююв324469 0.0 1017990
15:00+17ююв1138100 0.0 10161807
18:00+16в2141100 0.0 10141628
21:00+11юв1475100 0.0 1015305
14 апреля, ср
ср1400:00+10ссв1181100 0.0 101593
03:00+7ссз3492100 0.0 1014149
06:00+7ссв2391100 0.0 1013143
09:00+9юв247886 0.0 1013507
12:00+10ююв4578100 0.1 1013768
15:00+12юв5663100 0.3 10121230
18:00+10зюз2378100 0.4 1012364
21:00+7зсз469497 2.2 1013321
15 апреля, чт
чт1500:00+6сз4696100 0.2 1013319
03:00+5сз5696100 0.2 1013298
06:00+5сз5896100 0.0 1013302
09:00+4ссз5796100 1.3 1013340
12:00+4сз5897100 2.7 1013328
15:00+4сз6996100 3.9 1013360
18:00+4сз61096100 0.7 1014354
21:00
16 апреля, пт
пт1600:00+2зсз61197100 0.1 1013310
03:00+2сз51097100 0.3 1013354
06:00+3сз61097100 2.3 1012311
09:00+2зсз51097100 3.4 1012291
12:00+4зсз5896100 1.7 1012308
15:00+4зсз71397100 4.1 1012399
18:00+6сз6109599 4.1 1012464
21:00+6сз129292 0.5 101423
17 апреля, сб
сб1700:00+5зсз249894 0.0 1015131
03:00+5зсз3798100 0.1 1015187
06:00+6ссв2394100 0.4 1016110
09:00+7всв338084 0.4 1017629
12:00+10св4561100 0.1 10171536
15:00+8всв677688 0.4 1019812
18:00+7всв5676100 0.0 1020748
21:00+6всв4785100 0.1 1021520